#timestamp,LO_Frequency,Hit,StdDev 
1701799215.6,286046997.4,N
1701799235.4,286046994.9,Y
1701799255.3,286047000.9,P
1701799275.1,286047000.5,N
1701799295.9,286047000.9,N
1701799315.7,286046999.9,N
1701799335.5,286047000.9,N
1701799355.4,286047000.7,N
1701799375.2,286047002.4,N
1701799395.0,286046999.7,N
1701799395.9,286046999.7,N
1701799415.8,286047000.5,N
1701799435.6,286047002.4,N
1701799455.5,286047002.2,N
1701799475.3,286047001.4,N
1701799495.1,286047002.1,N
1701799515.9,286047002.2,N
1701799535.7,286047003.8,N
1701799555.6,286047004.0,N
1701799575.4,286046999.7,N
1701799595.2,286047000.0,N
1701799615.1,286047000.9,N
1701799616.0,286047000.9,N
1701799635.8,286046998.2,N
1701799655.7,286047000.5,N
1701799675.5,286047000.3,N
1701799695.3,286047001.7,N
1701799715.2,286047002.4,N
1701799735.9,286047004.0,N
1701799755.7,286047003.9,N
1701799775.6,286047003.7,N
1701799795.4,286047005.7,Y
1701799815.3,286047001.5,P
1701799835.1,286047001.5,P
1701799855.8,286047001.6,P
1701799875.7,286047003.9,Y
1701799895.5,286047000.4,P
1701799915.4,286047000.5,N
1701799935.2,286047002.7,P
1701799955.0,286047001.0,N
1701799955.9,286047001.0,N
1701799975.8,286046999.3,N
1701799995.6,286047001.2,N
1701800015.5,286047001.2,N
1701800035.3,286047000.5,N
1701800055.1,286047000.0,N
1701800075.9,286046999.8,N
1701800095.7,286047000.9,N
1701800115.6,286046998.1,N
1701800135.4,286046998.7,N
1701800155.2,286046999.3,N
1701800175.1,286046998.7,N
1701800176.0,286046998.7,N
1701800195.8,286046999.3,N
1701800215.6,286046998.2,N
1701800235.5,286047000.8,N
1701800255.3,286046998.4,N
1701800275.2,286046998.3,N
1701800295.9,286046998.1,N
1701800315.7,286046998.9,N
1701800335.6,286047001.0,N
1701800355.4,286047000.8,N
1701800375.2,286046998.1,N
1701800395.1,286046998.7,N
1701800396.0,286046998.7,N
1701800415.8,286046998.6,N
1701800435.7,286046996.5,N
1701800455.5,286046996.5,N
1701800475.3,286046999.4,N
1701800495.2,286046999.1,N
1701800515.9,286046998.4,N
1701800535.7,286046998.4,N
1701800555.6,286046999.1,N
1701800575.4,286046998.3,N
1701800595.3,286047001.2,N
1701800615.1,286046998.6,N
1701800635.8,286047000.6,N
1701800655.7,286046999.3,N
1701800675.5,286046998.1,N
1701800695.4,286046996.5,Y
1701800715.2,286046998.6,P
1701800735.0,286046998.8,P
1701800735.9,286046998.8,P
1701800755.8,286046998.1,Y
1701800775.6,286047000.4,P
1701800795.4,286047000.7,N
1701800815.3,286047001.2,N
1701800835.1,286047000.5,N
1701800855.9,286047000.6,N
1701800875.7,286047000.0,N
1701800895.5,286047000.2,N
1701800915.4,286047000.8,N
1701800935.2,286047000.5,N
1701800955.0,286047002.2,Y
1701800956.0,286047002.2,P
1701800975.8,286047000.1,N
1701800995.6,286047000.0,N
1701801015.5,286047000.2,N
1701801035.3,286047000.2,N
1701801055.1,286046999.7,N
1701801075.9,286047000.7,N
1701801095.7,286047000.2,N
1701801115.5,286047000.6,N
1701801135.4,286047002.6,Y
1701801155.2,286046999.9,P
1701801175.1,286047002.5,P
1701801176.0,286047002.5,N
1701801195.8,286047000.7,N
1701801215.6,286047001.0,N
1701801235.5,286047000.7,N
1701801255.3,286047000.2,N
1701801275.2,286046999.8,N
1701801295.9,286047001.5,N
1701801315.7,286047002.7,N
1701801335.6,286047000.3,N
1701801355.4,286047000.8,N
1701801375.2,286046998.2,N
1701801395.1,286047000.5,N
1701801396.0,286047000.5,N
1701801415.8,286047000.0,N
1701801435.7,286047002.7,N
1701801455.5,286047000.6,N
1701801475.3,286046999.0,N
1701801495.2,286046999.5,N
1701801515.0,286046999.4,N
1701801515.9,286046999.4,N
1701801535.7,286046999.1,N
1701801555.6,286046998.8,N
1701801575.4,286047001.1,N
1701801595.3,286047001.1,N
1701801615.1,286046999.3,N
1701801616.0,286046999.3,N
1701801635.8,286046997.4,N
1701801655.7,286046997.7,N
1701801675.5,286046994.9,Y
1701801695.3,286046997.8,P
1701801715.2,286046999.0,N
1701801735.0,286046999.5,N
1701801735.9,286046999.5,N
1701801755.8,286046997.8,N
1701801775.6,286046997.7,N
1701801795.4,286046997.1,Y
1701801815.3,286046998.9,P
1701801835.1,286046998.6,P
1701801855.9,286046998.4,P
1701801875.7,286046998.2,Y
1701801895.5,286047000.8,P
1701801915.4,286047000.8,N
1701801935.2,286047001.1,N
1701801955.0,286046998.7,N
1701801955.9,286046998.7,N
1701801975.8,286047001.2,N
1701801995.6,286047000.0,N
1701802015.5,286047000.8,N
1701802035.3,286047000.9,N
1701802055.1,286047000.2,N
1701802075.9,286047000.5,N
1701802095.7,286046999.9,N
1701802115.6,286047000.1,N
1701802135.4,286047002.7,Y
1701802155.2,286047002.8,P
1701802175.1,286047002.5,N
1701802176.0,286047002.5,N
1701802195.8,286047002.3,N
1701802215.6,286047002.8,N
1701802235.5,286047002.7,N
1701802255.3,286047004.1,Y
1701802275.2,286047002.6,P
1701802295.9,286047002.3,P
1701802315.7,286047000.6,P
1701802335.6,286047000.3,N
1701802355.4,286047001.0,N
1701802375.2,286047000.9,N
1701802395.1,286046999.9,N
1701802396.0,286046999.9,N
1701802415.8,286046998.2,N
1701802435.7,286046998.2,N
1701802455.5,286046998.5,N
1701802475.3,286046998.5,N
1701802495.2,286047000.8,N
1701802515.0,286046999.4,N
1701802515.9,286046999.4,N
1701802535.8,286046998.4,N
1701802555.6,286046998.4,N
1701802575.4,286046998.7,N
1701802595.3,286047000.6,N
1701802615.1,286047000.0,N
1701802635.8,286047001.1,N
1701802655.7,286047000.7,N
1701802675.5,286046998.2,N
1701802695.4,286046998.1,N
1701802715.2,286047001.0,N
1701802735.0,286047000.0,N
1701802735.9,286047000.0,N
1701802755.8,286047000.3,N
1701802775.6,286047000.0,N
1701802795.4,286047002.7,N
